GW1238 Weather Reports


time (UTC)temp
F
wind
direction
speed
knots
gust
knots
rain 1hr
in
rain 24hr
in
rain mn
in
humidity
%
barometer
mb
20260503192552 67 160 3.5 6.1 0.00 0.00 0.00 47 1022.5
20260503192048 67 177 4.3 5.2 0.00 0.00 0.00 48 1022.6
20260503191545 66 166 1.7 5.2 0.00 0.00 0.00 50 1022.6
20260503191042 65 171 4.3 6.1 0.00 0.00 0.00 47 1022.7
20260503190539 65 163 1.7 3.5 0.00 0.00 0.00 52 1022.7
20260503190036 65 137 3.5 5.2 0.00 0.00 0.00 46 1023.0
20260503185533 66 171 3.5 3.5 0.00 0.00 0.00 49 1022.9
20260503185032 64 136 2.6 2.6 0.00 0.00 0.00 53 1023.2
20260503184528 64 164 2.6 3.5 0.00 0.00 0.00 51 1023.1
20260503184025 64 165 2.6 2.6 0.00 0.00 0.00 51 1023.1
20260503183522 64 162 1.7 2.6 0.00 0.00 0.00 52 1023.0
20260503183019 63 159 1.7 3.5 0.00 0.00 0.00 49 1023.3
20260503182518 64 159 1.7 2.6 0.00 0.00 0.00 50 1023.2
20260503182015 64 181 2.6 3.5 0.00 0.00 0.00 52 1023.6
20260503181512 64 189 2.6 2.6 0.00 0.00 0.00 54 1023.4
20260503181008 63 154 1.7 2.6 0.00 0.00 0.00 54 1023.5
20260503180506 62 167 1.7 2.6 0.00 0.00 0.00 58 1023.5
20260503180002 61 153 1.7 2.6 0.00 0.00 0.00 56 1023.5
20260503175500 61 128 0.9 2.6 0.00 0.00 0.00 56 1023.8
20260503174956 60 130 2.6 2.6 0.00 0.00 0.00 55 1023.8
20260503174454 60 97 1.7 2.6 0.00 0.00 0.00 55 1024.0
20260503173949 60 103 0.9 1.7 0.00 0.00 0.00 52 1024.0
20260503173445 62 154 1.7 2.6 0.00 0.00 0.00 53 1024.2
20260503172942 62 170 2.6 2.6 0.00 0.00 0.00 52 1024.2
20260503172440 61 128 0.0 0.9 0.00 0.00 0.00 53 1024.3
20260503171936 62 149 0.0 1.7 0.00 0.00 0.00 52 1024.5
20260503171433 61 181 2.6 2.6 0.00 0.00 0.00 52 1024.6
20260503170931 61 188 2.6 3.5 0.00 0.00 0.00 55 1024.6
20260503170426 60 199 2.6 3.5 0.00 0.00 0.00 54 1024.7
20260503150819 56 64 2.6 5.2 0.00 0.00 0.00 62 1025.7
20260503150315 55 101 2.6 5.2 0.00 0.00 0.00 61 1025.5
20260503140239 55 57 3.5 5.2 0.00 0.00 0.00 76 1025.3
20260503131209 53 72 1.7 1.7 0.00 0.00 0.00 75 1025.3
20260503130707 53 59 1.7 3.5 0.00 0.00 0.00 77 1025.1
20260503130204 53 50 2.6 3.5 0.00 0.00 0.00 75 1025.2
20260503120129 49 356 0.0 0.9 0.00 0.00 0.00 91 1024.9
20260503110556 44 302 0.9 1.7 0.00 0.00 0.00 95 1024.1
20260503090444 46 287 1.7 2.6 0.00 0.00 0.00 91 1023.1
20260503081410 47 171 0.0 0.0 0.00 0.00 0.00 91 1023.0
20260503080907 47 129 0.0 0.0 0.00 0.00 0.00 91 1022.9
20260503080404 47 90 0.0 0.0 0.00 0.00 0.00 91 1023.0
20260503072840 47 330 0.9 0.9 0.00 0.00 0.00 89 1022.5
20260503072337 47 342 0.9 0.9 0.00 0.00 0.00 89 1022.5
20260503071833 48 259 0.0 0.9 0.00 0.00 0.00 89 1022.2
20260503071331 47 284 0.9 1.7 0.00 0.00 0.00 89 1022.4
20260503070827 47 276 1.7 1.7 0.00 0.00 0.00 88 1022.4
20260503070325 47 301 1.7 1.7 0.00 0.00 0.00 88 1022.4
20260503060250 48 23 0.9 0.9 0.00 0.00 0.00 86 1022.1
20260503054737 49 291 0.9 1.7 0.00 0.00 0.00 86 1022.0
20260503054234 49 291 0.9 1.7 0.00 0.00 0.00 85 1022.1
20260503053732 49 332 0.0 0.9 0.00 0.00 0.00 84 1022.2
20260503053231 49 342 0.9 0.9 0.00 0.00 0.00 85 1022.2
20260503052726 49 295 1.7 3.5 0.00 0.00 0.00 84 1022.3
20260503052223 49 295 1.7 1.7 0.00 0.00 0.00 85 1022.1
20260503051718 49 297 1.7 1.7 0.00 0.00 0.00 85 1021.9
20260503051216 49 290 1.7 1.7 0.00 0.00 0.00 85 1022.2
20260503050712 49 292 1.7 2.6 0.00 0.00 0.00 84 1022.2
20260503050209 49 291 1.7 2.6 0.00 0.00 0.00 84 1022.0
20260503045707 49 295 1.7 2.6 0.00 0.00 0.00 83 1021.9
20260503045204 50 283 1.7 2.6 0.00 0.00 0.00 83 1022.0
20260503044700 49 285 1.7 2.6 0.00 0.00 0.00 84 1022.0
20260503044158 49 286 1.7 1.7 0.00 0.00 0.00 83 1021.9
20260503043654 49 303 1.7 1.7 0.00 0.00 0.00 82 1021.9
20260503043152 49 301 1.7 2.6 0.00 0.00 0.00 81 1021.7
20260503042647 50 289 1.7 2.6 0.00 0.00 0.00 81 1021.8
20260503042144 51 313 1.7 1.7 0.00 0.00 0.00 80 1021.8
20260503041640 51 300 1.7 1.7 0.00 0.00 0.00 79 1021.7
20260503041138 51 301 0.9 1.7 0.00 0.00 0.00 78 1021.6
20260503040635 52 305 0.9 1.7 0.00 0.00 0.00 77 1021.7
20260503040133 52 330 0.0 0.0 0.00 0.00 0.00 77 1021.7
20260503035629 53 256 0.9 0.9 0.00 0.00 0.00 76 1021.4
20260503035127 53 264 0.0 0.9 0.00 0.00 0.00 75 1021.6
20260503034624 53 286 0.0 0.9 0.00 0.00 0.00 74 1021.6
20260503034121 54 186 0.0 0.9 0.00 0.00 0.00 72 1021.5
20260503033618 54 60 0.0 0.9 0.00 0.00 0.00 71 1021.6
20260503033116 54 271 0.0 1.7 0.00 0.00 0.00 68 1021.3
20260503032614 54 93 0.0 0.0 0.00 0.00 0.00 69 1021.5
20260503032113 55 75 0.0 1.7 0.00 0.00 0.00 68 1021.3
20260503031610 54 126 0.0 0.9 0.00 0.00 0.00 68 1021.2
20260503031107 55 306 0.9 1.7 0.00 0.00 0.00 69 1021.5
20260503030603 55 307 0.9 1.7 0.00 0.00 0.00 69 1021.4
20260503030100 55 327 0.9 2.6 0.00 0.00 0.00 68 1021.3
20260503025556 55 292 0.9 1.7 0.00 0.00 0.00 68 1021.3
20260503025054 55 327 0.9 3.5 0.00 0.00 0.00 67 1021.3
20260503024550 55 315 0.9 2.6 0.00 0.00 0.00 66 1021.2
20260503024048 55 273 1.7 1.7 0.00 0.00 0.00 67 1021.3
20260503023544 56 305 1.7 2.6 0.00 0.00 0.00 67 1021.1
20260503023042 56 322 1.7 2.6 0.00 0.00 0.00 64 1021.0
20260503022538 56 286 1.7 2.6 0.00 0.00 0.00 62 1021.0
20260503022032 56 271 2.6 3.5 0.00 0.00 0.00 64 1021.0
20260503021530 56 310 1.7 3.5 0.00 0.00 0.00 62 1020.9
20260503021026 57 264 0.0 3.5 0.00 0.00 0.00 60 1020.9
20260503020524 57 8 1.7 2.6 0.00 0.00 0.00 58 1020.8
20260503020020 57 247 0.9 2.6 0.00 0.00 0.00 59 1020.8
20260503015517 57 305 1.7 6.1 0.00 0.00 0.00 61 1020.8
20260503015014 57 323 0.9 3.5 0.00 0.00 0.00 59 1020.4
20260503014510 57 325 0.9 1.7 0.00 0.00 0.00 58 1020.4
20260503014009 58 331 0.0 1.7 0.00 0.00 0.00 58 1020.2
20260503013505 58 17 1.7 2.6 0.00 0.00 0.00 56 1020.2
20260503013003 58 359 1.7 2.6 0.00 0.00 0.00 55 1020.2
20260503012500 59 342 1.7 3.5 0.00 0.00 0.00 56 1020.2
20260503011956 59 157 0.0 3.5 0.00 0.00 0.00 54 1020.1
20260503011453 59 114 0.0 5.2 0.00 0.00 0.00 54 1020.1
20260503010950 59 306 1.7 3.5 0.00 0.00 0.00 53 1020.1
20260503010447 59 324 1.7 2.6 0.00 0.00 0.00 52 1020.1
20260503005944 60 311 0.9 1.7 0.00 0.00 0.00 50 1020.1
20260503005441 60 2 1.7 2.6 0.00 0.00 0.00 50 1019.9
20260503004938 61 292 0.0 2.6 0.00 0.00 0.00 51 1019.8
20260503004435 61 217 0.9 0.9 0.00 0.00 0.00 49 1019.4
20260503003932 61 354 0.0 0.0 0.00 0.00 0.00 47 1019.4
20260503003429 61 324 0.0 0.9 0.00 0.00 0.00 47 1019.2
20260503002926 61 297 0.9 1.7 0.00 0.00 0.00 51 1019.1
20260503002423 61 316 0.9 1.7 0.00 0.00 0.00 48 1019.1
20260503001919 61 294 0.9 1.7 0.00 0.00 0.00 51 1019.0
20260503001416 61 336 1.7 2.6 0.00 0.00 0.00 47 1018.8
20260503000914 61 290 0.9 1.7 0.00 0.00 0.00 52 1018.9
20260503000411 62 291 0.9 2.6 0.00 0.00 0.00 48 1018.8
20260502235908 62 310 0.0 0.9 0.00 0.00 0.00 51 1018.5
20260502235405 62 311 0.0 1.7 0.00 0.00 0.00 53 1018.5
20260502234902 62 292 1.7 1.7 0.00 0.00 0.00 50 1018.4
20260502234358 62 320 1.7 2.6 0.00 0.00 0.00 43 1018.2
20260502233855 63 62 0.0 0.9 0.00 0.00 0.00 50 1018.1
20260502233351 63 279 1.7 1.7 0.00 0.00 0.00 45 1017.9
20260502232848 63 302 1.7 2.6 0.00 0.00 0.00 42 1018.1
20260502232345 64 301 0.9 1.7 0.00 0.00 0.00 44 1018.0
20260502231841 64 315 0.9 2.6 0.00 0.00 0.00 44 1018.0
20260502231339 64 306 0.9 1.7 0.00 0.00 0.00 43 1018.1
20260502230837 65 156 0.0 3.5 0.00 0.00 0.00 39 1018.1
20260502230335 65 286 1.7 3.5 0.00 0.00 0.00 38 1018.1
20260502225831 65 34 0.9 1.7 0.00 0.00 0.00 40 1018.1
20260502225328 65 273 3.5 5.2 0.00 0.00 0.00 40 1017.9
20260502224825 66 264 2.6 3.5 0.00 0.00 0.00 37 1018.1
20260502224321 66 274 3.5 3.5 0.00 0.00 0.00 39 1017.9
20260502223819 66 310 1.7 3.5 0.00 0.00 0.00 36 1018.0
20260502223317 66 278 3.5 5.2 0.00 0.00 0.00 36 1018.1
20260502222814 66 277 3.5 5.2 0.00 0.00 0.00 36 1018.0
20260502222311 66 355 1.7 7.0 0.00 0.00 0.00 36 1018.0
20260502221807 66 297 3.5 3.5 0.00 0.00 0.00 36 1017.8
20260502221303 66 300 4.3 5.2 0.00 0.00 0.00 36 1017.8
20260502220801 65 352 3.5 7.8 0.00 0.00 0.00 35 1017.8
20260502220256 66 250 2.6 5.2 0.00 0.00 0.00 37 1017.7
20260502215753 67 300 1.7 2.6 0.00 0.00 0.00 36 1017.8
20260502215250 66 289 0.9 2.6 0.00 0.00 0.00 43 1017.9
20260502214748 66 310 1.7 5.2 0.00 0.00 0.00 37 1017.9
20260502214244 67 67 1.7 2.6 0.00 0.00 0.00 38 1017.6
20260502213742 66 24 2.6 6.1 0.00 0.00 0.00 36 1017.7
20260502213239 66 311 1.7 3.5 0.00 0.00 0.00 38 1017.7
20260502212738 66 39 1.7 5.2 0.00 0.00 0.00 37 1017.7
20260502212236 66 317 1.7 2.6 0.00 0.00 0.00 40 1017.7
20260502211731 65 269 1.7 3.5 0.00 0.00 0.00 37 1017.7
20260502211228 65 276 2.6 3.5 0.00 0.00 0.00 39 1017.6
20260502210725 65 270 3.5 5.2 0.00 0.00 0.00 38 1017.7
20260502210222 65 294 2.6 5.2 0.00 0.00 0.00 38 1017.5
20260502205720 65 338 0.9 6.1 0.00 0.00 0.00 39 1017.6
20260502205216 67 266 1.7 3.5 0.00 0.00 0.00 36 1017.9
20260502204713 67 319 1.7 2.6 0.00 0.00 0.00 37 1017.7
20260502204211 66 246 0.9 2.6 0.00 0.00 0.00 39 1017.7
20260502203708 66 35 0.9 2.6 0.00 0.00 0.00 38 1017.8
20260502203206 65 292 3.5 7.0 0.00 0.00 0.00 38 1017.7
20260502202659 66 341 2.6 6.1 0.00 0.00 0.00 35 1017.7
20260502202158 67 61 3.5 3.5 0.00 0.00 0.00 37 1017.6
20260502201655 67 276 1.7 6.1 0.00 0.00 0.00 34 1017.8
20260502201152 67 304 3.5 6.1 0.00 0.00 0.00 37 1017.8
20260502200647 67 254 1.7 7.8 0.00 0.00 0.00 40 1017.7
20260502200144 67 125 0.9 2.6 0.00 0.00 0.00 39 1017.8
20260502195643 66 258 4.3 7.0 0.00 0.00 0.00 35 1017.7
20260502195138 68 271 0.9 5.2 0.00 0.00 0.00 36 1017.6
20260502194635 68 238 1.7 3.5 0.00 0.00 0.00 37 1017.8
20260502194132 65 95 1.7 2.6 0.00 0.00 0.00 44 1017.8
20260502193629 66 43 3.5 3.5 0.00 0.00 0.00 37 1017.9
20260502193126 65 281 0.9 3.5 0.00 0.00 0.00 38 1017.8